Flag for U.S.A. Weather past 2 weeks in Sierra Vista, Arizona, U.S.A.

Now
68 °F

Scattered clouds.


Feels Like: 68 °F
Forecast: 69 / 88 °F
Wind: 3 mph from Southwest

Location: Fort Huachuca

Current Time: Jul 1, 2015 at 6:47:29 AM

Latest Report: Jul 1, 2015 at 5:58 AM


Visibility: 7 mi

Pressure: 29.96 "Hg

Humidity: 82%

Dew point: 63 °F

Location of Sierra VistaLocation

Historic Weather in Sierra Vista — Graph

°F

Sierra Vista temperature yesterday

Maximum temperature yesterday: 93 °F (at 1:58 PM)
Minimum temperature yesterday: 64 °F (at 7:58 PM)
Average temperature yesterday: 76 °F

Past Weeks' High & Low Weather Summary

 TemperatureHumidityPressure
High101 °F (Jun 19, 1:58 PM)92% (Jul 1, 12:58 AM)30.22 "Hg (Jul 1, 12:58 AM)
Low64 °F (Jun 30, 7:58 PM)7% (Jun 20, 2:58 PM)29.73 "Hg (Jun 19, 5:58 PM)
Average82 °F35%29.90 "Hg
* Reported Jun 16 4:58 AM — Jul 1 4:58 AM, Sierra Vista, Weather by CustomWeather, © 2015

Note: Actual official high and low records may vary slightly from our data, if they occured in-between our weather recording intervals... More about our weather records

Advertising

Sierra Vista weather history for previous 24 hours

 ConditionsComfort  
Time TempWeatherWind HumidityBarometerVisibility
4:58 AM
Wed, Jul 1
67 °FPassing clouds.2 mph86%29.92 "Hg10 mi
3:58 AM66 °FClear.6 mph89%29.93 "Hg10 mi
2:58 AM66 °FClear.3 mph90%29.90 "Hg10 mi
1:58 AM67 °FClear.5 mph88%29.89 "Hg10 mi
12:58 AM67 °FOvercast.3 mph92%29.91 "Hg10 mi
11:58 PM
Tue, Jun 30
67 °FClear.5 mph91%29.91 "Hg10 mi
10:58 PM68 °FPassing clouds.6 mph88%29.93 "Hg10 mi
9:58 PM68 °FPassing clouds.1 mph85%29.93 "Hg10 mi
9:00 PM68 °FThundershowers. Passing clouds.14 mph83%30.12 "Hg10 mi
8:58 PM67 °FThundershowers. Passing clouds.13 mph87%29.91 "Hg10 mi
7:58 PM64 °FThunderstorms. Mostly cloudy.18 mph88%29.89 "Hg7 mi
6:58 PM79 °FThunderstorms. Mostly cloudy.9 mph48%29.80 "Hg9 mi
6:02 PM73 °FThunderstorms. Partly sunny.14 mph53%30.01 "Hg10 mi
5:58 PM71 °FThunderstorms. Partly sunny.15 mph65%29.82 "Hg9 mi
4:58 PM82 °FThunderstorms. Partly sunny.15 mph49%29.77 "Hg9 mi
3:59 PM77 °FThunderstorms. Broken clouds.16 mph51%30.02 "Hg8 mi
3:58 PM77 °FThunderstorms. Partly sunny.20 mph51%29.80 "Hg7 mi
2:58 PM90 °FLight rain. Partly sunny.8 mph27%29.79 "Hg10 mi
1:58 PM93 °FScattered clouds.5 mph21%29.82 "Hg10 mi
12:58 PM92 °FSunny.7 mph24%29.86 "Hg10 mi
11:58 AM90 °FPassing clouds.7 mph27%29.88 "Hg10 mi
10:58 AM86 °FSunny.7 mph31%29.91 "Hg9 mi
9:58 AM84 °FSunny.7 mph33%29.91 "Hg10 mi
8:58 AM79 °FSunny.3 mph45%29.95 "Hg9 mi
7:58 AM73 °FScattered clouds.2 mph62%29.96 "Hg8 mi
6:58 AM72 °FSunny.6 mph66%29.94 "Hg7 mi
Weather by CustomWeather, © 2015

See weather overviewHow to use our weather pages